❰ Current Conditions

NWS Regional Weather Roundup - New England Area

REGIONAL WEATHER ROUNDUP
NATIONAL WEATHER SERVICE BOSTON/NORTON MA
700 PM EDT MON MAY 25 2020

NOTE:  "FAIR" INDICATES FEW OR NO CLOUDS BELOW 12,000 FEET WITH NO 
SIGNIFICANT WEATHER AND/OR OBSTRUCTIONS TO VISIBILITY.

MAZALL-260000-
EASTERN MASSACHUSETTS
  
CITY           SKY/WX    TMP DP  RH WIND       PRES   REMARKS
BOSTON         FOG       52  50  93 NE6       30.22S VSB 1/2          
BEVERLY        CLOUDY    58  53  84 S5        30.21S                  
LAWRENCE       CLOUDY    63  55  75 NE6       30.22S                  
BEDFORD        PTSUNNY   64  54  69 E6        30.19S                  
BLUE HILL        N/A     54  51  90 NE8       30.20S                  
NORWOOD        CLOUDY    60  52  74 N6        30.21R                  
MARSHFIELD     CLOUDY    55  55 100 CALM      30.21S FOG              
PLYMOUTH       FAIR      60  54  80 NE5       30.19F                  
TAUNTON        FAIR      70  61  73 SE7       30.18S                  
NEW BEDFORD    FAIR      65  60  84 SE7       30.19S                  
$$

MAZALL-260000-
CAPE COD AND THE ISLANDS
  
CITY           SKY/WX    TMP DP  RH WIND       PRES   REMARKS
FALMOUTH       SUNNY     64  57  77 E3        30.20F                  
HYANNIS        FAIR      60  55  83 S6        30.20S                  
CHATHAM        CLOUDY    55  52  89 E6        30.22F                  
PROVINCETOWN   FAIR      60  55  83 SW3       30.22F                  
NANTUCKET      CLOUDY    57  53  86 NE8       30.20S                  
MARTHAS VNYRD  CLOUDY    55  52  89 NE8       30.20S                  
$$
 
MAZALL-260000-
CENTRAL AND WESTERN MASSACHUSETTS
  
CITY           SKY/WX    TMP DP  RH WIND       PRES   REMARKS
WORCESTER      CLOUDY    67  57  70 SE9       30.20S                  
FITCHBURG      CLOUDY    70  56  61 S5        30.19S                  
ORANGE         PTSUNNY   71  63  75 S6        30.19S                  
SPRINGFIELD    CLOUDY    71  60  69 SW8       30.16S                  
WESTFIELD      CLOUDY    70  60  70 S8        30.17S                  
NORTH ADAMS    FAIR      72  59  63 E9        30.13R                  
PITTSFIELD     FAIR      71  59  65 SE10G17   30.14S                  
$$
 
RIZALL-260000-
RHODE ISLAND
  
CITY           SKY/WX    TMP DP  RH WIND       PRES   REMARKS
PROVIDENCE     PTSUNNY   67  60  78 S5        30.19S                  
NEWPORT        FAIR      64  57  78 SE3       30.19S                  
BLOCK ISLAND   LGT RAIN  54  53  97 E10       30.20S VSB 1/2          
SMITHFIELD     CLOUDY    68  61  78 CALM      30.20S                  
WESTERLY       PTSUNNY   62  56  80 E9        30.20S                  
$$
 
CTZALL-260000-
CONNECTICUT
  
CITY           SKY/WX    TMP DP  RH WIND       PRES   REMARKS
BRADLEY INTL   PTSUNNY   71  61  70 SW9       30.17S                  
HARTFORD       CLOUDY    71  61  70 S9        30.17S                  
BRIDGEPORT     FAIR      63  57  81 NE10      30.18F                  
DANBURY        FAIR      66  59  78 SE5       30.18S                  
GROTON         FOG       55  55 100 E8        30.19S VSB 1            
NEW HAVEN      CLOUDY    64  59  83 E9        30.19S                  
CHESTER        CLOUDY   N/A N/A N/A CALM      30.20R                  
MERIDEN        CLOUDY    67  59  75 SW5       30.19R                  
WILLIMANTIC    CLOUDY    70  61  73 S6        30.18R                  
OXFORD         CLOUDY    64  61  90 SE6       30.20S                  
$$

MEZ002-015-021-024-NHZ003-005-008-011-012-014-VTZ005-008-260000-
NORTHERN NEW ENGLAND
  
CITY           SKY/WX    TMP DP  RH WIND       PRES   REMARKS
PORTLAND ME    CLOUDY    53  49  86 E6        30.23F                  
BANGOR ME      CLOUDY    59  51  75 S12       30.22F                  
CONCORD NH     FAIR      66  56  70 SE6       30.19S                  
MANCHESTER NH  PTSUNNY   68  57  68 SE8       30.18S                  
NASHUA NH      PTSUNNY   69  60  73 SE6       30.19S                  
PORTSMOUTH NH  CLOUDY    54  49  86 E5        30.21S                  
JAFFREY NH     CLOUDY    66  56  70 S7        30.19F                  
KEENE NH       CLOUDY    68  61  78 CALM      30.17F                  
BURLINGTON VT  PTSUNNY   78  56  46 S8        30.05F                  
MT. WASHINGTON PTSUNNY   48  39  71 W40         N/A                   
$$

NYZ052-076-260000-
EASTERN NEW YORK
  
CITY           SKY/WX    TMP DP  RH WIND       PRES   REMARKS
ALBANY         FAIR      77  55  46 S14       30.09F                  
NEW YORK CITY  FAIR      64  55  72 NE10      30.16F                  
$$
 
ANZALL-260000-
MARINE OBSERVATIONS
  
STATION/POSITION TIME  TEMP    WIND        PRES    VSBY  WAVE
                       AIR SEA DIR/SP/G                  HT/PER
                 (UTC) (F)     (DEG/KT/KT) (MB)    (MI)  (FT/S)
BOSTON BUOY      2250   51 52   70/  6/  6 1022.4F         2/ 8
BUZZARDS BAY     2200           80/  6/  6 1023.6F
NANTUCKET SOUND  2250   52 55   80/  8/ 10 1022.4F         1/ 8
MASS BAY-STELLWA 2204   50 45  110/  6/  8 1021.6F  1 7/8  3/ 8
ISLE OF SHOALS   2200   50      60/  5/  6 1023.3F
S OF BLOCK IS    2230      51                N/A           4/ 7
$$

......................KEY.........................
  SKY/WX - SKY CONDITION/PRESENT WEATHER
  TMP    - TEMPERATURE IN FAHRENHEIT
  DWPT   - DEWPOINT IN FAHRENHEIT
  RH     - RELATIVE HUMIDITY IN PERCENT
  WIND   - DIRECTION AND SPEED IN MPH
  PRES   - MEAN SEA LEVEL PRESSURE IN INCHES OF HG
  WCI    - WIND CHILL INDEX
  VSB    - VISIBILITY IN MILES
  HX     - HEAT INDEX
  TC     - TEMPERATURE IN CELSIUS
  VRB    - VARIABLE WIND DIRECTION